Regional Weather Roundup
Issued by NWS Charleston, SC

Home | Current Version | Previous Version | Text Only | Print | Product List | Glossary On
Versions: 1 2 3 4 5 6 7 8 9 10 11 12 13 14 15 16 17 18 19 20 21 22 23 24 25 26 27 28 29 30 31 32 33 34 35 36 37 38 39 40 41 42 43 44 45 46 47 48 49 50
000
ASUS42 KCHS 260427
RWRCHS

REGIONAL WEATHER ROUNDUP
NATIONAL WEATHER SERVICE CHARLESTON SC
1200 AM EDT TUE SEP 26 2017

NOTE: "FAIR" INDICATES FEW OR NO CLOUDS BELOW 12,000 FEET WITH NO
SIGNIFICANT WEATHER AND/OR OBSTRUCTIONS TO VISIBILITY.

NOT ALL STATIONS ARE QUALITY CONTROLLED. USE DATA WITH CAUTION...
ESPECIALLY DEWPOINT OBSERVATIONS.

SCZ027-030-031-034>040-042>050-260500-
...SOUTHEAST SOUTH CAROLINA...

CITY           SKY/WX    TMP DP  RH WIND       PRES   REMARKS
N CHARLESTON   MOCLDY    73  69  87 N5        29.88S
WATERFRONT PRK   N/A     77  71  82 N9        29.72S
JOHNS ISLAND   FAIR      75  70  83 W5        29.88S
PINOPOLIS        N/A     75  72  88 NE7       29.82S
MONCKS CORNER  FAIR      75  68  78 N5        29.89S
SUMMERVILLE    MOCLDY    70  68  94 CALM      29.90S
BEAUFORT MCAS  CLEAR     74  71  91 N5        29.90S
BEAUFORT ARPT  FAIR      73  70  88 N6        29.89S
HILTON HEAD IS CLEAR     77  72  83 N8        29.90S
WALTERBORO     CLEAR     68  66  94 CALM      29.91F
ALLENDALE      NOT AVBL

...SOUTHERN MIDLANDS AND PEE DEE...

CITY           SKY/WX    TMP DP  RH WIND       PRES   REMARKS
GEORGETOWN     CLOUDY    72  72 100 NW5       29.87S
KINGSTREE      FAIR      68  66  94 W5        29.88F
ORANGEBURG     PTCLDY    68  66  93 CALM      29.92S
BARNWELL       MOCLDY    73  70  88 CALM      29.93S
AIKEN          FAIR      70  63  78 CALM      29.98S
MANNING        MOCLDY    72  68  88 MISG      29.90F
COLUMBIA       PTCLDY    74  67  78 CALM      29.92S
SUMTER         PTCLDY    74  65  74 N5        29.89S
FLORENCE       PTCLDY    73  68  84 N8        29.89F
MYRTLE BEACH   MOCLDY    74  69  85 N7        29.86F
N MYRTLE BEACH PTCLDY    75  69  81 N8        29.84F

$$

GAZ063-065-086>088-099>101-113>116-118-119-134>141-150-260500-
...SOUTHEAST GEORGIA...

CITY           SKY/WX    TMP DP  RH WIND       PRES   REMARKS
SAVANNAH ARPT  CLEAR     71  68  90 CALM      29.90F
HUNTER AAF     CLEAR     71  67  88 CALM      29.88S
FORT STEWART   CLEAR     71  66  87 CALM      29.89R
STATESBORO     CLEAR     69  69  99 CALM      29.92R
SYLVANIA       CLEAR     69  69 100 CALM      29.93R
CLAXTON        FAIR      69  68  97 CALM      29.92S

...CSRA...CENTRAL AND FAR SOUTHEAST GEORGIA...

CITY           SKY/WX    TMP DP  RH WIND       PRES   REMARKS
THOMSON        CLEAR     66  65  95 CALM      29.99S
AUGUSTA-BUSH     N/A    N/A N/A N/A MISG        N/A
AUGUSTA-DANIEL CLOUDY    78  66  66 N6        29.94R
SWAINSBORO     FAIR      68  68 100 NW3       29.94R
VIDALIA        CLEAR     70  68  94 CALM      29.93S
EASTMAN        FAIR      67  67  99 CALM      29.95F
HAZLEHURST     FAIR      71  62  72 CALM      29.92S
ALMA           CLEAR     67  65  93 CALM      29.91F
WAYCROSS       CLEAR     70  66  86 CALM      29.92S
JESUP          NOT AVBL
BAXLEY         FAIR      68  66  94 CALM      29.92S
BRUNSWICK      FOG       70  68  94 CALM      29.90F VSB 1
SAINT SIMONS   CLEAR     75  72  90 CALM      29.90S

$$

SCZ027-028-034-036>038-045-046-048>050-GAZ119-141-260500-
...LAKE AND SUPPLEMENTAL COASTAL OBSERVATIONS...

STATION/POSITION TIME  TEMP    WIND        PRES    WAVE   SWELL
                       AIR SEA DIR/SP/G            HT/PER HT/PER/DIR
                 (UTC) (F)     (DEG/KT/KT) (MB)    (FT/S) (FT/S/D)
WINYAH BAY       0345   75     360/  6     1011.0S
LAKE MURRAY      0420   73        CALM     1012.9
ACE BASIN NERRS  0345   73        CALM     1012.0S
FORT PULASKI     0400   76 81  340/  5/  5 1012.6
SAPELO ISLAND    0400   73        CALM     1013.0

$$

ANZ835-935-AMZ111-154-330-350-352-354-370-450-454-472-260500-
...C-MAN AND BUOY OBSERVATIONS...

STATION/POSITION TIME  TEMP    WIND        PRES    WAVE   SWELL
                       AIR SEA DIR/SP/G            HT/PER HT/PER/DIR
                 (UTC) (F)     (DEG/KT/KT) (MB)    (FT/S) (FT/S/D)
BUOY 41004       0410   79 81  360/ 16/ 19 1010.1
BUOY 41008       0350   80 80   40/ 10/ 12 1011.8R   5/13   3/100/13
FOLLY BEACH CMAN 0400   77     360/  9/ 10 1012.2F
CAPERS NEARSHORE 0308   74 80  360/ 12/ 16 1011.2
FRIPP NEARSHORE  0408   78      30/ 10/ 14 1017.5F


STATION/POSITION TIME  TEMP    WIND        PRES    WAVE   SWELL
                       AIR SEA DIR/SP/G            HT/PER HT/PER/DIR
                 (UTC) (F)     (DEG/KT/KT) (MB)    (FT/S) (FT/S/D)
5E ST. MARYS GA  0400      81                N/A     5/12   3/ 90/12
FRYING PAN BUOY  0410   78 81   10/ 23/ 29 1008.2
BUOY 41025       0350   77 77   20/ 23/ 27 1006.4F  16/13  15/150/13
CAPE LOOKOUT NC  0400   75     360/ 22/ 28 1007.8F
BUOY 41002       0350   78 81  330/ 35/ 43  992.6R  20/11
BUOY 41010       0410          330/ 12/ 14 1010.3
ST AUGUSTINE FL  0400   79 82   20/  9/ 10 1012.6S


$$




USA.gov is the U.S. government's official web portal to all federal, state and local government web resources and services.